Weather History for Ft Pierce, FL

Change the Weather History Date:

Sunday, December 23, 2012

  Actual Average Record
Temperature  
Mean Temperature 53 °F -  
Max Temperature 69 °F 75 °F 84 °F (1951)
Min Temperature 37 °F 52 °F 23 °F (1989)
Degree Days  
Heating Degree Days 12    
Growing Degree Days 3 (Base 50)    
Moisture  
Dew Point 45 °F    
Average Humidity 72    
Maximum Humidity 93    
Minimum Humidity 44    
Precipitation  
Precipitation 0.00 in - - ()
Sea Level Pressure  
Sea Level Pressure 30.20 in    
Wind  
Wind Speed 4 mph (NW)    
Max Wind Speed 7 mph    
Max Gust Speed -    
Visibility 10 miles    
Events      
Averages and records for this station are not official NWS values.
T = Trace of Precipitation, MM = Missing Value Source: NWS Daily Summary

Daily Weather History Graph

Daily Weather History Graph

Search for Another Location

Airport:

Trip Planner

Search our weather history database for the weather conditions in past years. The results will help you decide how hot, cold, wet, or windy it might be!

Date:

Astronomy

Dec. 23, 2012 Rise Set
Actual Time 7:08 AM EST 5:33 PM EST
Civil Twilight 6:43 AM EST 5:58 PM EST
Nautical Twilight 6:13 AM EST 6:27 PM EST
Astronomical Twilight 5:45 AM EST 6:56 PM EST
Moon 2:13 PM EST (12/23) 3:00 AM EST (12/23)
Length of Visible Light 11h 15m
Length of Day
10h 24m
Waxing Gibbous, 81% of the Moon is Illuminated
Dec 23
Waxing Gibbous
Dec 28
Full
Jan 4
Last Quarter
Jan 11
New
Jan 18
First Quarter

Hourly Weather History & Observations

Time (EST) Temp. Windchill Dew Point Humidity Pressure Visibility Wind Dir Wind Speed Gust Speed Precip Events Conditions
12:53 AM 37.9 °F 35.5 °F 33.1 °F 83% 30.23 in 10.0 mi WNW 3.5 mph - N/A   Clear
1:53 AM 37.9 °F 35.5 °F 33.1 °F 83% 30.23 in 10.0 mi West 3.5 mph - N/A   Clear
2:53 AM 37.0 °F 33.3 °F 32.0 °F 82% 30.22 in 10.0 mi West 4.6 mph - N/A   Clear
3:53 AM 37.0 °F 34.5 °F 33.1 °F 86% 30.22 in 10.0 mi WNW 3.5 mph - N/A   Clear
4:53 AM 37.9 °F 34.4 °F 33.1 °F 83% 30.22 in 10.0 mi WNW 4.6 mph - N/A   Clear
5:53 AM 41.0 °F 37.1 °F 33.1 °F 73% 30.22 in 10.0 mi WNW 5.8 mph - N/A   Clear
6:53 AM 39.9 °F 36.7 °F 33.1 °F 77% 30.23 in 10.0 mi NW 4.6 mph - N/A   Clear
7:53 AM 46.9 °F - 35.1 °F 63% 30.24 in 10.0 mi NW 3.5 mph - N/A   Clear
8:53 AM 55.0 °F - 34.0 °F 45% 30.26 in 10.0 mi NW 6.9 mph - N/A   Clear
9:53 AM 60.1 °F - 37.9 °F 44% 30.26 in 10.0 mi WNW 4.6 mph - N/A   Clear
10:53 AM 64.9 °F - 44.1 °F 47% 30.25 in 10.0 mi Variable 5.8 mph - N/A   Clear
11:53 AM 69.1 °F - 51.1 °F 53% 30.22 in 10.0 mi NNE 3.5 mph - N/A   Clear
12:53 PM 68.0 °F - 52.0 °F 56% 30.19 in 10.0 mi NE 6.9 mph - N/A   Partly Cloudy
1:53 PM 69.1 °F - 52.0 °F 54% 30.17 in 10.0 mi NE 5.8 mph - N/A   Partly Cloudy
2:53 PM 68.0 °F - 53.1 °F 59% 30.17 in 10.0 mi Variable 3.5 mph - N/A   Clear
3:53 PM 68.0 °F - 54.0 °F 61% 30.17 in 10.0 mi NE 3.5 mph - N/A   Partly Cloudy
4:53 PM 66.9 °F - 55.0 °F 66% 30.17 in 10.0 mi Calm Calm - N/A   Clear
5:53 PM 60.1 °F - 54.0 °F 80% 30.17 in 10.0 mi Calm Calm - N/A   Clear
6:53 PM 57.9 °F - 54.0 °F 87% 30.17 in 10.0 mi Calm Calm - N/A   Clear
7:53 PM 55.9 °F - 53.1 °F 90% 30.18 in 10.0 mi Calm Calm - N/A   Clear
8:53 PM 55.0 °F - 53.1 °F 93% 30.19 in 10.0 mi Calm Calm - N/A   Clear
9:53 PM 55.9 °F - 53.1 °F 90% 30.19 in 10.0 mi Calm Calm - N/A   Clear
10:53 PM 54.0 °F - 52.0 °F 93% 30.18 in 10.0 mi Calm Calm - N/A   Clear
11:53 PM 55.0 °F - 52.0 °F 89% 30.17 in 10.0 mi Calm Calm - N/A   Clear